Weather in Zayanye

Russia / Pskov Oblast     58°46′47″N   28°37′33″E
temp.,
°C
wind,
m/s
gust,
m/s
humid.,
%
clouds,
%
prec.,
mm/h
press.,
hPa
HPBL,
m
8 may, sat
sat800:00+3s1192100 0.0 100510
03:00+4se1191100 0.1 100410
06:00+4wnw1192100 0.2 100370
09:00+3w3598100 1.7 1004490
12:00+1w3999100 7.8 1006361
15:00+5w468399 8.4 10071065
18:00+5wnw3788100 0.5 1009844
21:00+1wnw11975 0.6 101116
9 may, sun
sun900:00−1w29935 0.0 1012170
03:00−1w310955 0.0 1014235
06:00−1w28950 0.0 1015196
09:00+5w37785 0.0 1017537
12:00+9w46585 0.0 10181321
15:00+11w464496 0.0 10191857
18:00+11wsw365084 0.0 10191031
21:00+6s247297 0.0 101953
10 may, mon
mon1000:00+5s3980100 0.0 1019210
03:00+6s41391100 0.7 1019714
06:00+7ssw51388100 0.9 1018536
09:00+9ssw41286100 0.9 1020479
12:00+16ssw586699 0.0 1020842
15:00+20sw5849100 0.0 10201724
18:00+19ssw4957100 0.0 10211173
21:00+15ssw41370100 0.0 1022549
11 may, tue
tue1100:00+13ssw41479100 0.0 1023541
03:00+11s4138023 0.0 1023447
06:00+11s41382100 0.0 1024426
09:00+15s511585 0.0 1024665
12:00+19s69445 0.0 10241203
15:00+21s68405 0.0 10231465
18:00+20s48490 0.0 10231348
21:00+14sse39700 0.0 1023231
12 may, wed
wed1200:00+11sse312825 0.0 1024320
03:00+10sse311925 0.0 1024266
06:00+10sse29917 0.0 1025231
09:00+16sse36607 0.0 1024573
12:00+20sse464454 0.0 10241155
15:00+22se563793 0.0 10231317
18:00+20se3648100 0.0 10231159
21:00+15ese227394 0.0 102323